timestamp,wind_dir_avg,wind_spd_avg,wind_spd_max_dir,wind_spd_gust,battery_voltage,lat,long
2022-12-07 00:04:00+00:00,59.0,11.0,59.0,11.79,12.41,47.59359,-54.27349
2022-12-07 00:14:00+00:00,59.0,10.39,59.0,12.0,12.33,47.59359,-54.27349
2022-12-07 00:24:00+00:00,67.0,8.81,70.0,10.37,12.33,47.59359,-54.27349
2022-12-07 00:34:00+00:00,57.0,9.13,62.0,11.21,12.33,47.59359,-54.27349
2022-12-07 00:44:00+00:00,66.0,9.67,66.0,11.12,12.33,47.59359,-54.27349
2022-12-07 00:54:00+00:00,69.0,9.96,72.0,10.99,12.33,47.59359,-54.27349
2022-12-07 01:04:00+00:00,60.0,10.75,56.0,11.98,12.33,47.59359,-54.27349
2022-12-07 01:14:00+00:00,68.0,8.74,69.0,11.25,12.33,47.59359,-54.27349
2022-12-07 01:24:00+00:00,63.0,9.87,63.0,11.32,12.33,47.59359,-54.27349
2022-12-07 01:34:00+00:00,66.0,10.55,67.0,11.27,12.33,47.59359,-54.27349
2022-12-07 01:44:00+00:00,60.0,11.14,57.0,12.22,12.33,47.59359,-54.27349
2022-12-07 01:54:00+00:00,69.0,10.55,67.0,11.32,12.33,47.59359,-54.27349
2022-12-07 02:04:00+00:00,59.0,10.58,62.0,11.72,12.33,47.59359,-54.27349
2022-12-07 02:14:00+00:00,62.0,10.84,58.0,11.93,12.25,47.59359,-54.27349
2022-12-07 02:24:00+00:00,66.0,10.4,62.0,11.88,12.25,47.59359,-54.27349
2022-12-07 02:34:00+00:00,58.0,9.39,61.0,11.5,12.25,47.59359,-54.27349
2022-12-07 02:44:00+00:00,58.0,11.12,58.0,12.1,12.25,47.59359,-54.27349
2022-12-07 02:54:00+00:00,58.0,10.45,58.0,12.05,12.25,47.59359,-54.27349
2022-12-07 03:04:00+00:00,54.0,9.68,56.0,11.62,12.25,47.59359,-54.27349
2022-12-07 03:14:00+00:00,52.0,8.06,58.0,11.29,12.25,47.59359,-54.27349
2022-12-07 03:24:00+00:00,66.0,10.17,64.0,11.15,12.25,47.59359,-54.27349
2022-12-07 03:34:00+00:00,52.0,7.41,59.0,11.39,12.25,47.59359,-54.27349
2022-12-07 03:44:00+00:00,62.0,9.85,62.0,11.61,12.25,47.59359,-54.27349
2022-12-07 03:54:00+00:00,61.0,9.0,61.0,11.16,12.25,47.59359,-54.27349
2022-12-07 04:04:00+00:00,48.0,8.32,56.0,11.21,12.25,47.59359,-54.27349
2022-12-07 04:14:00+00:00,60.0,7.42,66.0,10.26,12.17,47.59359,-54.27349
2022-12-07 04:24:00+00:00,60.0,8.3,59.0,10.55,12.17,47.59359,-54.27349
2022-12-07 04:34:00+00:00,60.0,6.41,63.0,10.45,12.17,47.59359,-54.27349
2022-12-07 04:44:00+00:00,59.0,6.07,76.0,10.46,12.17,47.59359,-54.27349
2022-12-07 04:54:00+00:00,59.0,9.64,62.0,11.24,12.17,47.59359,-54.27349
2022-12-07 05:04:00+00:00,46.0,7.02,63.0,10.48,12.17,47.59359,-54.27349
2022-12-07 05:14:00+00:00,55.0,9.52,58.0,11.1,12.17,47.59359,-54.27349
2022-12-07 05:24:00+00:00,48.0,8.28,57.0,11.26,12.17,47.59359,-54.27349
2022-12-07 05:34:00+00:00,54.0,6.7,63.0,10.87,12.17,47.59359,-54.27349
2022-12-07 05:44:00+00:00,59.0,8.63,62.0,10.89,12.17,47.59359,-54.27349
2022-12-07 05:54:00+00:00,49.0,7.76,56.0,10.2,12.17,47.59359,-54.27349
2022-12-07 06:04:00+00:00,52.0,7.92,57.0,11.43,12.17,47.59359,-54.27349
2022-12-07 06:14:01+00:00,51.0,8.88,61.0,10.94,12.17,47.59359,-54.27349
2022-12-07 06:24:01+00:00,51.0,7.84,55.0,11.21,12.17,47.59359,-54.27349
2022-12-07 06:34:01+00:00,56.0,8.78,60.0,10.79,12.17,47.59359,-54.27349
2022-12-07 06:44:01+00:00,51.0,9.33,58.0,11.09,12.17,47.59359,-54.27349
2022-12-07 06:54:01+00:00,52.0,9.34,59.0,11.3,12.17,47.59359,-54.27349
2022-12-07 07:04:01+00:00,39.0,7.04,57.0,9.59,12.17,47.59359,-54.27349
2022-12-07 07:14:01+00:00,46.0,6.61,58.0,10.23,12.17,47.59359,-54.27349
2022-12-07 07:24:01+00:00,38.0,6.49,49.0,7.89,12.17,47.59359,-54.27349
2022-12-07 07:34:01+00:00,37.0,6.65,48.0,8.21,12.17,47.59359,-54.27349
2022-12-07 07:44:01+00:00,53.0,9.62,60.0,11.46,12.17,47.59359,-54.27349
2022-12-07 07:54:01+00:00,45.0,8.4,57.0,11.4,12.17,47.59359,-54.27349
2022-12-07 08:04:01+00:00,58.0,9.42,62.0,11.29,12.17,47.59359,-54.27349
2022-12-07 08:14:00+00:00,51.0,7.84,60.0,10.8,12.17,47.59359,-54.27349
2022-12-07 08:24:00+00:00,48.0,7.63,57.0,10.46,12.17,47.59359,-54.27349
2022-12-07 08:34:00+00:00,42.0,6.23,57.0,10.22,12.17,47.59359,-54.27349
2022-12-07 08:44:00+00:00,51.0,9.22,58.0,11.29,12.17,47.59359,-54.27349
2022-12-07 08:54:00+00:00,49.0,9.07,54.0,11.47,12.17,47.59359,-54.27349
2022-12-07 09:04:00+00:00,53.0,9.62,54.0,11.46,12.17,47.59359,-54.27349
2022-12-07 09:14:00+00:00,42.0,7.83,56.0,10.89,12.09,47.59359,-54.27349
2022-12-07 09:24:00+00:00,54.0,8.84,59.0,11.12,12.09,47.59359,-54.27349
2022-12-07 09:34:00+00:00,45.0,8.49,53.0,11.23,12.09,47.59359,-54.27349
2022-12-07 09:44:00+00:00,49.0,8.72,54.0,10.93,12.09,47.59359,-54.27349
2022-12-07 09:54:00+00:00,57.0,10.26,58.0,11.39,12.09,47.59359,-54.27349
2022-12-07 10:04:00+00:00,54.0,7.55,63.0,10.85,12.09,47.59359,-54.27349
2022-12-07 10:14:01+00:00,60.0,8.66,61.0,10.37,12.17,47.59359,-54.27349
2022-12-07 10:24:01+00:00,52.0,9.05,57.0,11.58,12.17,47.59359,-54.27349
2022-12-07 10:34:01+00:00,46.0,7.71,57.0,10.53,12.17,47.59359,-54.27349
2022-12-07 10:44:01+00:00,61.0,10.4,61.0,11.5,12.17,47.59359,-54.27349
2022-12-07 10:54:01+00:00,56.0,9.32,59.0,10.91,12.17,47.59359,-54.27349
2022-12-07 11:04:01+00:00,47.0,7.53,60.0,10.87,12.17,47.59359,-54.27349
2022-12-07 11:14:00+00:00,52.0,8.32,61.0,10.74,12.17,47.59359,-54.27349
2022-12-07 11:24:00+00:00,43.0,8.0,57.0,11.23,12.17,47.59359,-54.27349
2022-12-07 11:34:00+00:00,54.0,8.38,59.0,11.36,12.17,47.59359,-54.27349
2022-12-07 11:44:00+00:00,63.0,9.56,60.0,11.01,12.17,47.59359,-54.27349
2022-12-07 11:54:00+00:00,64.0,9.13,63.0,10.5,12.17,47.59359,-54.27349
2022-12-07 12:04:00+00:00,46.0,6.45,58.0,10.51,12.17,47.59359,-54.27349
2022-12-07 12:14:00+00:00,56.0,7.87,55.0,11.2,12.25,47.59359,-54.27349
2022-12-07 12:24:00+00:00,56.0,8.5,56.0,11.29,12.25,47.59359,-54.27349
2022-12-07 12:34:00+00:00,60.0,9.41,60.0,11.14,12.25,47.59359,-54.27349
2022-12-07 12:44:00+00:00,53.0,7.42,62.0,10.67,12.25,47.59359,-54.27349
2022-12-07 12:54:00+00:00,62.0,8.77,65.0,10.57,12.25,47.59359,-54.27349
2022-12-07 13:04:00+00:00,47.0,6.9,63.0,10.15,12.25,47.59359,-54.27349
2022-12-07 13:14:00+00:00,32.0,6.16,33.0,7.06,13.21,47.59359,-54.27349
2022-12-07 13:24:00+00:00,35.0,5.92,34.0,6.81,13.21,47.59359,-54.27349
2022-12-07 13:34:00+00:00,39.0,5.64,37.0,6.23,13.21,47.59359,-54.27349
2022-12-07 13:44:00+00:00,41.0,6.3,51.0,8.23,13.21,47.59359,-54.27349
2022-12-07 13:54:00+00:00,61.0,8.06,65.0,10.24,13.21,47.59359,-54.27349
2022-12-07 14:04:00+00:00,70.0,10.24,65.0,11.01,13.21,47.59359,-54.27349
2022-12-07 14:14:00+00:00,66.0,9.0,66.0,10.47,13.6,47.59359,-54.27349
2022-12-07 14:24:00+00:00,70.0,10.13,69.0,10.62,13.6,47.59359,-54.27349
2022-12-07 14:34:00+00:00,64.0,5.98,77.0,9.56,13.6,47.59359,-54.27349
2022-12-07 14:44:00+00:00,52.0,5.2,60.0,7.75,13.6,47.59359,-54.27349
2022-12-07 14:54:00+00:00,51.0,4.65,58.0,7.21,13.6,47.59359,-54.27349
2022-12-07 15:04:00+00:00,46.0,6.12,55.0,9.91,13.6,47.59359,-54.27349
2022-12-07 15:14:00+00:00,46.0,4.94,63.0,6.1,13.68,47.59359,-54.27349
2022-12-07 15:24:00+00:00,34.0,5.3,34.0,6.25,13.68,47.59359,-54.27349
2022-12-07 15:34:00+00:00,26.0,4.78,38.0,5.88,13.68,47.59359,-54.27349
2022-12-07 15:44:00+00:00,30.0,4.81,32.0,5.75,13.68,47.59359,-54.27349
2022-12-07 15:54:00+00:00,22.0,4.16,33.0,5.1,13.68,47.59359,-54.27349
2022-12-07 16:04:00+00:00,10.0,4.5,29.0,5.71,13.68,47.59359,-54.27349
2022-12-07 16:14:01+00:00,26.0,5.18,32.0,5.91,13.29,47.59359,-54.27349
2022-12-07 16:24:01+00:00,23.0,4.48,34.0,5.35,13.29,47.59359,-54.27349
2022-12-07 16:34:01+00:00,16.0,3.96,16.0,4.6,13.29,47.59359,-54.27349
2022-12-07 16:44:01+00:00,41.0,4.7,41.0,5.4,13.29,47.59359,-54.27349
2022-12-07 16:54:01+00:00,50.0,3.45,46.0,4.38,13.29,47.59359,-54.27349
2022-12-07 17:04:01+00:00,35.0,4.32,34.0,4.99,13.29,47.59359,-54.27349
2022-12-07 17:14:00+00:00,32.0,3.96,34.0,4.61,13.29,47.59359,-54.27349
2022-12-07 17:24:00+00:00,35.0,3.97,39.0,4.63,13.29,47.59359,-54.27349
2022-12-07 17:34:00+00:00,29.0,4.5,29.0,5.21,13.29,47.59359,-54.27349
2022-12-07 17:44:00+00:00,34.0,4.61,32.0,4.99,13.29,47.59359,-54.27349
2022-12-07 17:54:00+00:00,36.0,5.05,35.0,5.77,13.29,47.59359,-54.27349
2022-12-07 18:04:00+00:00,35.0,5.28,35.0,5.98,13.29,47.59359,-54.27349
2022-12-07 18:14:00+00:00,39.0,6.41,41.0,7.03,12.97,47.59359,-54.27349
2022-12-07 18:24:00+00:00,43.0,6.08,43.0,6.57,12.97,47.59359,-54.27349
2022-12-07 18:34:00+00:00,43.0,6.69,42.0,7.21,12.97,47.59359,-54.27349
2022-12-07 18:44:00+00:00,46.0,6.43,41.0,7.09,12.97,47.59359,-54.27349
2022-12-07 18:54:00+00:00,41.0,5.04,40.0,5.93,12.97,47.59359,-54.27349
2022-12-07 19:04:00+00:00,39.0,6.29,39.0,6.85,12.97,47.59359,-54.27349
2022-12-07 19:14:00+00:00,39.0,6.02,43.0,6.94,12.89,47.59359,-54.27349
2022-12-07 19:24:00+00:00,39.0,5.85,46.0,6.7,12.89,47.59359,-54.27349
2022-12-07 19:34:00+00:00,43.0,6.32,47.0,7.13,12.89,47.59359,-54.27349
2022-12-07 19:44:00+00:00,45.0,5.84,45.0,6.67,12.89,47.59359,-54.27349
2022-12-07 19:54:00+00:00,41.0,5.97,43.0,6.5,12.89,47.59359,-54.27349
2022-12-07 20:04:00+00:00,38.0,6.08,36.0,6.47,12.89,47.59359,-54.27349
2022-12-07 20:14:00+00:00,46.0,5.77,44.0,6.37,12.57,47.59359,-54.27349
2022-12-07 20:24:00+00:00,36.0,6.27,38.0,6.82,12.57,47.59359,-54.27349
2022-12-07 20:34:00+00:00,43.0,6.6,47.0,7.07,12.57,47.59359,-54.27349
2022-12-07 20:44:00+00:00,50.0,6.24,51.0,7.56,12.57,47.59359,-54.27349
2022-12-07 20:54:00+00:00,43.0,6.81,43.0,7.47,12.57,47.59359,-54.27349
2022-12-07 21:04:00+00:00,34.0,7.01,36.0,7.55,12.57,47.59359,-54.27349
2022-12-07 21:14:01+00:00,43.0,6.28,42.0,7.57,12.49,47.59359,-54.27349
2022-12-07 21:24:01+00:00,37.0,7.37,37.0,8.03,12.49,47.59359,-54.27349
2022-12-07 21:34:01+00:00,33.0,7.74,34.0,8.7,12.49,47.59359,-54.27349
2022-12-07 21:44:01+00:00,37.0,7.79,36.0,8.35,12.49,47.59359,-54.27349
2022-12-07 21:54:01+00:00,53.0,7.43,56.0,8.45,12.49,47.59359,-54.27349
2022-12-07 22:04:01+00:00,50.0,7.35,41.0,8.32,12.49,47.59359,-54.27349
2022-12-07 22:14:01+00:00,49.0,7.11,55.0,7.91,12.41,47.59359,-54.27349
2022-12-07 22:24:01+00:00,44.0,7.31,43.0,8.17,12.41,47.59359,-54.27349
2022-12-07 22:34:01+00:00,40.0,7.37,37.0,8.16,12.41,47.59359,-54.27349
2022-12-07 22:44:01+00:00,46.0,7.19,37.0,7.98,12.41,47.59359,-54.27349
2022-12-07 22:54:01+00:00,47.0,7.05,50.0,8.08,12.41,47.59359,-54.27349
2022-12-07 23:04:01+00:00,47.0,7.23,53.0,8.44,12.41,47.59359,-54.27349
2022-12-07 23:14:00+00:00,43.0,7.39,43.0,8.11,12.41,47.59359,-54.27349
2022-12-07 23:24:00+00:00,39.0,7.39,40.0,8.23,12.41,47.59359,-54.27349
2022-12-07 23:34:00+00:00,40.0,8.14,43.0,8.68,12.41,47.59359,-54.27349
2022-12-07 23:44:00+00:00,47.0,7.25,47.0,7.82,12.41,47.59359,-54.27349
2022-12-07 23:54:00+00:00,72.0,5.92,73.0,7.0,12.41,47.59359,-54.27349
